Vorticity
nan nan nan nan nan nan nan nan nan nan nan nan nan nan nan nan nan nan nan nan nan nan nan nan nan nan nan
nan 9 9 11 11 11 11 11 10 8 8 9 9 10 12 12 12 11 11 11 13 13 12 11 10 10 nan
nan 11 12 10 10 11 11 12 9 9 12 12 10 10 11 10 9 10 11 12 13 12 11 11 12 13 nan
nan 9 8 10 12 10 11 11 10 14 14 15 16 16 16 13 13 11 12 13 13 13 12 12 13 13 nan
nan 9 8 9 9 11 10 8 9 12 14 14 17 17 16 17 12 10 11 12 12 12 11 12 12 12 nan
nan 7 7 9 11 9 7 7 12 12 8 10 11 10 12 12 6 9 9 10 12 13 14 14 13 11 nan
nan 10 11 10 8 8 10 10 10 7 9 11 11 11 11 7 4 9 12 13 13 14 15 15 13 13 nan
nan 8 5 5 8 12 12 13 12 10 10 11 11 11 10 7 14 15 15 13 12 13 13 13 14 15 nan
nan 7 9 12 13 15 12 11 11 11 14 16 9 11 14 15 19 16 16 12 13 13 13 14 14 22 nan
nan 15 16 14 15 15 11 10 10 11 9 9 9 12 16 12 9 16 14 13 18 19 16 16 17 18 nan
nan 13 13 13 15 12 10 10 11 7 2 6 11 10 7 5 8 12 10 16 17 17 19 19 18 7 nan
nan 11 11 11 9 9 12 13 11 6 11 10 9 7 7 7 9 9 9 14 12 14 17 18 22 27 nan
nan 11 10 9 11 13 13 13 13 14 14 12 10 10 10 9 10 6 11 13 13 12 12 18 24 25 nan
nan 10 10 11 12 12 12 12 13 13 14 15 11 12 11 11 11 11 13 10 11 12 13 15 17 16 nan
nan 11 10 10 11 11 11 11 11 9 10 13 14 16 15 13 12 11 10 11 12 12 14 17 17 15 nan
nan 11 10 10 9 11 12 11 9 10 10 9 10 14 19 22 12 4 9 10 12 15 15 15 16 17 nan
nan nan nan nan nan nan nan nan nan nan nan nan nan nan nan nan nan nan nan nan nan nan nan nan nan nan nan
CAPE
1 1 0 1 2 13 18 21 33 24 25 42 46 51 59 59 64 74 81 97 102 110 124 139 131 141 138
7 1 0 1 12 18 7 0 0 0 13 34 31 40 50 58 64 70 67 81 81 94 94 102 122 127 129
7 2 19 32 11 1 0 0 0 2 12 13 17 32 43 47 49 52 49 54 61 75 79 78 86 98 118
19 33 18 5 11 12 4 4 13 4 8 13 14 17 18 19 18 19 26 33 45 56 61 61 69 75 85
21 17 22 11 4 7 17 25 21 8 12 12 7 10 7 6 4 6 14 26 38 48 58 71 63 73 84
43 26 8 7 7 24 46 23 23 2 9 15 12 5 1 0 1 11 24 36 41 47 58 80 121 114 120
23 6 12 10 31 32 34 37 32 19 11 10 0 1 0 0 2 6 9 15 31 42 52 67 88 90 90
10 23 41 35 25 27 32 28 16 5 2 16 0 2 2 0 1 1 5 19 23 29 40 50 56 61 67
32 22 6 6 10 21 18 15 10 5 0 7 2 13 11 4 0 1 3 6 11 24 44 51 59 61 66
0 0 0 0 4 4 18 14 17 10 0 4 20 18 4 0 0 3 0 0 9 21 41 57 64 49 52
0 0 1 2 1 3 8 14 13 16 0 16 15 14 13 16 4 4 3 1 10 11 8 11 24 33 17
1 9 10 10 11 10 8 13 15 12 8 9 8 10 9 10 12 5 2 6 19 17 11 3 10 38 60
13 13 12 10 8 10 7 6 3 4 4 1 7 7 14 11 11 9 9 7 13 1 3 0 0 2 7
14 12 12 10 10 12 11 10 13 3 0 0 8 11 15 12 8 7 5 9 3 4 0 0 1 4 6
13 10 9 9 7 9 10 10 9 8 4 2 3 7 7 6 8 4 8 10 2 0 0 0 0 5 6
9 10 9 8 9 8 9 9 9 6 7 9 9 7 1 0 0 10 9 3 2 0 0 1 1 1 4
9 6 8 8 7 6 6 8 6 7 10 12 7 12 7 5 0 0 3 2 2 6 2 2 1 3 3